Location: Unspecified
(35.6961°N, 0.0000°E)
Time: 23:57:01
(UTC+00:00)

Explorer 11/Cluster Stage 4 - Pass Details

Date: 26 May 2019
Orbit: 467 x 1260 km, 28.8° (Epoch: 17 June)

Event Time Altitude Azimuth Distance (km) Brightness Sun altitude
Rises 04:52:03 0° 261° (W) 3,128 9.0 -0.1°
Reaches altitude 10° 04:54:56 10° 251° (WSW) 2,066 8.1 0.4°
Maximum altitude 04:59:03 30° 191° (S) 1,044 7.0 1.2°
Drops below altitude 10° 05:02:34 10° 128° (SE) 1,749 8.8 1.8°
Sets 05:04:48 0° 117° (ESE) 2,567 9.9 2.2°
